Retour au catalogue

LEMUR 2 GREENBERG

ActifMétéoSSO
NORAD 42837·PAYLOAD·🇺🇸 United States

Lancé Jul 14, 2017 depuis Baikonur Cosmodrome

Loading…

Prochains Passages (prochaines 24 heures)

TLE

FraisSource: Space-Track

Époque: Sep 14, 2026, 11:15 UTC

1 42837U 17042N   26257.46917813  .00013501  00000-0  41367-3 0  9993
2 42837  97.3860  77.8852 0009161  51.6392 308.5672 15.33875484502061

Suivez LEMUR 2 GREENBERG en temps réel avec AllMySat

Download on the App Store